Location: Newark
(45.4422°N, 16.2769°E)
Time: 12:54:50
(UTC+00:00)

deb Explorer IX - All Passes

Search period start: 08 December 2019 00:00
Search period end: 18 December 2019 00:00
Orbit: 545 x 1105 km, 38.8° (Epoch: 08 December)

Date Brightness Start Highest point End Pass type
(mag) Time Alt. Az. Time Alt. Az. Time Alt. Az.
08 Dec - 15:21:20 10° SSW 15:26:01 23° SSE 15:31:09 10° E daylight
08 Dec - 17:06:20 10° WSW 17:12:25 44° SSE 17:19:09 10° E visible
08 Dec - 18:52:47 10° WSW 18:59:21 49° S 19:06:21 10° ESE visible
08 Dec - 20:40:00 10° W 20:46:11 32° SSW 20:52:28 10° SE visible
08 Dec - 22:29:41 10° WSW 22:32:22 12° SW 22:35:04 10° SSW night (unlit)
09 Dec - 14:59:21 10° SSW 15:03:53 23° SSE 15:08:53 10° E daylight
09 Dec - 16:44:19 10° WSW 16:50:15 44° SSE 16:56:54 10° E visible
09 Dec - 18:30:44 10° WSW 18:37:10 48° S 18:44:07 10° ESE visible
09 Dec - 20:17:54 10° W 20:23:59 31° SSW 20:30:15 10° SE visible
09 Dec - 22:07:37 10° WSW 22:10:11 12° SW 22:12:46 10° SSW night (unlit)
10 Dec - 14:37:24 10° SSW 14:41:46 22° SSE 14:46:37 10° E daylight
10 Dec - 16:22:20 10° WSW 16:28:06 43° SSE 16:34:39 10° E visible
10 Dec - 18:08:41 10° WSW 18:14:59 48° S 18:21:52 10° ESE visible
10 Dec - 19:55:48 10° W 20:01:47 31° SSW 20:08:01 10° SE visible
10 Dec - 21:45:36 10° WSW 21:48:00 12° SW 21:50:25 10° SSW night (unlit)
11 Dec - 14:15:27 10° SSW 14:19:39 22° SSE 14:24:20 10° ESE daylight
11 Dec - 16:00:20 10° WSW 16:05:58 43° SSE 16:12:22 10° E visible
11 Dec - 17:46:40 10° WSW 17:52:48 47° S 17:59:36 10° ESE visible
11 Dec - 19:33:43 10° W 19:39:34 30° SSW 19:45:44 10° SSE visible
11 Dec - 21:23:39 10° WSW 21:25:49 11° SW 21:27:59 10° SSW night (unlit)
12 Dec - 13:53:30 10° SSW 13:57:33 21° SSE 14:02:04 10° ESE daylight
12 Dec - 15:38:22 10° WSW 15:43:50 42° SSE 15:50:05 10° E visible
12 Dec - 17:24:39 10° WSW 17:30:38 46° S 17:37:20 10° ESE visible
12 Dec - 19:11:41 10° W 19:17:23 29° SSW 19:23:28 10° SSE visible
12 Dec - 21:01:46 10° SW 21:03:37 11° SW 21:05:29 10° SSW night (unlit)
13 Dec - 13:31:34 10° SSW 13:35:28 21° SSE 13:39:48 10° ESE daylight
13 Dec - 15:16:25 10° WSW 15:21:42 42° SSE 15:27:49 10° E daylight
13 Dec - 17:02:38 10° WSW 17:08:28 45° S 17:15:02 10° ESE visible
13 Dec - 18:49:39 10° W 18:55:12 29° SSW 19:01:10 10° SSE visible
13 Dec - 20:40:02 10° SW 20:41:26 11° SW 20:42:50 10° SSW visible
14 Dec - 13:09:39 10° SSW 13:13:23 20° SSE 13:17:32 10° ESE daylight
14 Dec - 14:54:28 10° WSW 14:59:35 41° SSE 15:05:32 10° E daylight
14 Dec - 16:40:40 10° WSW 16:46:19 44° S 16:52:45 10° ESE visible
14 Dec - 18:27:38 10° W 18:33:01 28° SSW 18:38:50 10° SSE visible
14 Dec - 20:18:40 10° SW 20:19:15 10° SW 20:19:49 10° SW visible
15 Dec - 12:47:44 10° SSW 12:51:18 20° SSE 12:55:17 10° ESE daylight
15 Dec - 14:32:32 10° WSW 14:37:29 40° SSE 14:43:15 10° ESE daylight
15 Dec - 16:18:42 10° WSW 16:24:10 43° S 16:30:27 10° ESE visible
15 Dec - 18:05:39 10° WSW 18:10:50 27° SSW 18:16:31 10° SSE visible
16 Dec - 12:25:49 10° SSW 12:29:15 19° SSE 12:33:02 10° ESE daylight
16 Dec - 14:10:36 10° WSW 14:15:24 40° S 14:20:59 10° ESE daylight
16 Dec - 15:56:44 10° WSW 16:02:02 42° S 16:08:09 10° ESE visible
16 Dec - 17:43:40 10° WSW 17:48:40 26° SSW 17:54:11 10° SSE visible
17 Dec - 12:03:54 10° SSW 12:07:12 19° SSE 12:10:48 10° ESE daylight
17 Dec - 13:48:41 10° WSW 13:53:19 39° S 13:58:43 10° ESE daylight
17 Dec - 15:34:48 10° WSW 15:39:55 41° S 15:45:51 10° ESE visible
17 Dec - 17:21:43 10° WSW 17:26:30 25° SSW 17:31:49 10° SSE visible
